• In Netherlands
  • List of Countries
  • For 7 days
  • Water Temperature
  • Satellite Maps
  • Weather Map
  • Weather Widgets
  • user-avatar
    Login

    Hourly Weather Kipungo

    Today, 24 January, Wednesday

    Time Temperature Precipitation Wind Pressure Humidity
    00:00 +19°C° 0 mm 2 mps 652 mmHg 91%
    01:00 +19°C° 0 mm 2 mps 651 mmHg 93%
    02:00 +19°C° 0.2 mm 2 mps 651 mmHg 94%
    03:00 +19°C° 0.2 mm 2 mps 651 mmHg 95%
    04:00 +18°C° 0.2 mm 2 mps 651 mmHg 96%
    05:00 +19°C° 0.2 mm 2 mps 652 mmHg 94%
    06:00 +19°C° 0.2 mm 2 mps 652 mmHg 92%
    07:00 +19°C° 0.2 mm 2 mps 653 mmHg 91%
    08:00 +21°C° 0.1 mm 2 mps 653 mmHg 83%
    09:00 +24°C° 0.1 mm 2 mps 653 mmHg 76%
    10:00 +25°C° 0.1 mm 1 mps 654 mmHg 69%
    11:00 +26°C° 1.4 mm 1 mps 654 mmHg 67%
    12:00 +27°C° 1.4 mm 1 mps 653 mmHg 65%
    13:00 +28°C° 1.4 mm 1 mps 653 mmHg 63%
    14:00 +27°C° 3.2 mm 2 mps 653 mmHg 70%
    15:00 +25°C° 3.2 mm 2 mps 652 mmHg 77%
    16:00 +24°C° 3.2 mm 2 mps 651 mmHg 84%
    17:00 +23°C° 1.8 mm 2 mps 651 mmHg 86%
    18:00 +21°C° 1.8 mm 2 mps 651 mmHg 88%
    19:00 +20°C° 1.8 mm 3 mps 651 mmHg 90%
    20:00 +20°C° 0.3 mm 2 mps 652 mmHg 92%
    21:00 +19°C° 0.3 mm 2 mps 652 mmHg 93%
    22:00 +19°C° 0.3 mm 2 mps 653 mmHg 94%
    23:00 +19°C° 0.1 mm 2 mps 652 mmHg 95%

    Tomorrow, 25 January, Thursday

    Time Temperature Precipitation Wind Pressure Humidity
    00:00 +19°C° 0.1 mm 2 mps 652 mmHg 95%
    01:00 +19°C° 0.1 mm 1 mps 652 mmHg 96%
    02:00 +19°C° 0.4 mm 1 mps 652 mmHg 96%
    03:00 +19°C° 0.4 mm 1 mps 652 mmHg 97%
    04:00 +19°C° 0.4 mm 1 mps 652 mmHg 97%
    05:00 +19°C° 0.3 mm 1 mps 652 mmHg 96%
    06:00 +20°C° 0.3 mm 1 mps 652 mmHg 95%
    07:00 +20°C° 0.3 mm 1 mps 653 mmHg 95%
    08:00 +21°C° 0.1 mm 1 mps 653 mmHg 88%
    09:00 +23°C° 0.1 mm 1 mps 654 mmHg 82%
    10:00 +25°C° 0.1 mm 1 mps 655 mmHg 75%
    11:00 +26°C° 0.1 mm 1 mps 654 mmHg 71%
    12:00 +26°C° 0.1 mm 1 mps 654 mmHg 67%
    13:00 +27°C° 0.1 mm 1 mps 653 mmHg 62%
    14:00 +27°C° 0.2 mm 1 mps 653 mmHg 63%
    15:00 +26°C° 0.2 mm 1 mps 652 mmHg 64%
    16:00 +26°C° 0.2 mm 1 mps 651 mmHg 65%
    17:00 +25°C° 0.3 mm 1 mps 651 mmHg 71%
    18:00 +23°C° 0.3 mm 1 mps 651 mmHg 76%
    19:00 +22°C° 0.3 mm 1 mps 651 mmHg 82%
    20:00 +21°C° 0.3 mm 1 mps 652 mmHg 85%
    21:00 +21°C° 0.3 mm 1 mps 652 mmHg 88%
    22:00 +20°C° 0.3 mm 1 mps 652 mmHg 90%
    23:00 +20°C° 0.2 mm 1 mps 652 mmHg 91%

    Day after tomorrow, 26 January, Friday

    Time Temperature Precipitation Wind Pressure Humidity
    00:00 +20°C° 0.2 mm 1 mps 652 mmHg 92%
    01:00 +19°C° 0.2 mm 2 mps 652 mmHg 93%
    02:00 +20°C° 0.2 mm 1 mps 651 mmHg 94%
    03:00 +20°C° 0.2 mm 1 mps 651 mmHg 95%
    04:00 +19°C° 0.2 mm 1 mps 651 mmHg 95%
    05:00 +20°C° 0.1 mm 1 mps 651 mmHg 94%
    06:00 +20°C° 0.1 mm 1 mps 652 mmHg 92%
    07:00 +18°C° 0.1 mm 0 mps 652 mmHg 90%
    08:00 +22°C° 0.3 mm 1 mps 653 mmHg 81%
    09:00 +25°C° 0.3 mm 1 mps 654 mmHg 71%
    10:00 +27°C° 0.3 mm 1 mps 654 mmHg 62%
    11:00 +28°C° 0.3 mm 2 mps 654 mmHg 57%
    12:00 +29°C° 0.3 mm 2 mps 654 mmHg 52%
    13:00 +30°C° 0.3 mm 2 mps 653 mmHg 48%
    14:00 +29°C° 0.3 mm 2 mps 653 mmHg 49%
    15:00 +29°C° 0.3 mm 2 mps 652 mmHg 51%
    16:00 +29°C° 0.3 mm 2 mps 651 mmHg 52%
    17:00 +27°C° 0.2 mm 2 mps 651 mmHg 59%
    18:00 +25°C° 0.2 mm 2 mps 651 mmHg 65%
    19:00 +24°C° 0.2 mm 1 mps 651 mmHg 71%
    20:00 +23°C° 0.1 mm 1 mps 652 mmHg 73%
    21:00 +23°C° 0.1 mm 1 mps 652 mmHg 75%
    22:00 +22°C° 0.1 mm 1 mps 652 mmHg 77%
    23:00 +22°C° 0.1 mm 1 mps 652 mmHg 80%

    27 January, Saturday

    Time Temperature Precipitation Wind Pressure Humidity
    00:00 +21°C° 0.1 mm 1 mps 652 mmHg 83%
    01:00 +21°C° 0.1 mm 1 mps 651 mmHg 86%
    02:00 +21°C° 0 mm 1 mps 651 mmHg 87%
    03:00 +21°C° 0 mm 1 mps 651 mmHg 88%
    04:00 +20°C° 0 mm 1 mps 651 mmHg 90%
    05:00 +21°C° 0.1 mm 1 mps 651 mmHg 89%
    06:00 +19°C° 0.1 mm 0 mps 652 mmHg 87%
    07:00 +19°C° 0.1 mm 0 mps 652 mmHg 86%
    08:00 +22°C° 0.4 mm 0 mps 653 mmHg 77%
    09:00 +24°C° 0.4 mm 0 mps 654 mmHg 68%
    10:00 +27°C° 0.4 mm 0 mps 655 mmHg 59%
    11:00 +28°C° 0.4 mm 0 mps 654 mmHg 55%
    12:00 +31°C° 0.4 mm 1 mps 654 mmHg 52%
    13:00 +32°C° 0.4 mm 1 mps 653 mmHg 48%
    14:00 +31°C° 0.6 mm 1 mps 653 mmHg 51%
    15:00 +30°C° 0.6 mm 1 mps 652 mmHg 54%
    16:00 +29°C° 0.6 mm 2 mps 651 mmHg 57%
    17:00 +27°C° 0.4 mm 2 mps 651 mmHg 64%
    18:00 +25°C° 0.4 mm 2 mps 651 mmHg 71%
    19:00 +24°C° 0.4 mm 2 mps 651 mmHg 78%
    20:00 +23°C° 0.2 mm 2 mps 652 mmHg 81%
    21:00 +22°C° 0.2 mm 1 mps 652 mmHg 84%
    22:00 +21°C° 0.2 mm 1 mps 652 mmHg 87%
    23:00 +21°C° 0.4 mm 1 mps 652 mmHg 88%

    28 January, Sunday

    Time Temperature Precipitation Wind Pressure Humidity
    00:00 +21°C° 0.4 mm 1 mps 652 mmHg 89%
    01:00 +21°C° 0.4 mm 1 mps 651 mmHg 90%
    02:00 +21°C° 0.1 mm 1 mps 651 mmHg 90%
    03:00 +21°C° 0.1 mm 1 mps 651 mmHg 91%
    04:00 +21°C° 0.1 mm 1 mps 651 mmHg 91%
    05:00 +21°C° 0 mm 1 mps 651 mmHg 90%
    06:00 +21°C° 0 mm 1 mps 652 mmHg 89%
    07:00 +22°C° 0 mm 1 mps 652 mmHg 88%
    08:00 +24°C° 0.4 mm 1 mps 653 mmHg 79%
    09:00 +26°C° 0.4 mm 1 mps 653 mmHg 70%
    10:00 +26°C° 0.4 mm 0 mps 654 mmHg 61%
    11:00 +29°C° 0.1 mm 1 mps 653 mmHg 56%
    12:00 +30°C° 0.1 mm 1 mps 653 mmHg 51%
    13:00 +31°C° 0.1 mm 1 mps 652 mmHg 47%
    14:00 +30°C° 0.4 mm 1 mps 652 mmHg 50%
    15:00 +30°C° 0.4 mm 1 mps 651 mmHg 53%
    16:00 +29°C° 0.4 mm 1 mps 651 mmHg 56%
    17:00 +27°C° 0.7 mm 1 mps 651 mmHg 62%
    18:00 +25°C° 0.7 mm 1 mps 651 mmHg 69%
    19:00 +24°C° 0.7 mm 1 mps 651 mmHg 75%
    20:00 +23°C° 0.7 mm 1 mps 652 mmHg 79%
    21:00 +22°C° 0.7 mm 1 mps 652 mmHg 83%
    22:00 +22°C° 0.7 mm 1 mps 652 mmHg 87%
    23:00 +21°C° 0.1 mm 1 mps 652 mmHg 88%

    29 January, Monday

    Time Temperature Precipitation Wind Pressure Humidity
    00:00 +21°C° 0.1 mm 1 mps 652 mmHg 90%
    01:00 +21°C° 0.1 mm 1 mps 651 mmHg 91%
    02:00 +21°C° 0.1 mm 1 mps 651 mmHg 92%
    03:00 +21°C° 0.1 mm 1 mps 651 mmHg 92%
    04:00 +21°C° 0.1 mm 1 mps 651 mmHg 93%
    05:00 +21°C° 0.1 mm 1 mps 651 mmHg 92%
    06:00 +21°C° 0.1 mm 1 mps 652 mmHg 91%
    07:00 +21°C° 0.1 mm 1 mps 652 mmHg 90%
    08:00 +23°C° 0.7 mm 1 mps 653 mmHg 83%
    09:00 +25°C° 0.7 mm 1 mps 653 mmHg 77%
    10:00 +26°C° 0.7 mm 1 mps 654 mmHg 70%
    11:00 +28°C° 0.7 mm 1 mps 654 mmHg 66%
    12:00 +29°C° 0.7 mm 1 mps 653 mmHg 61%
    13:00 +30°C° 0.7 mm 1 mps 653 mmHg 57%
    14:00 +29°C° 0.6 mm 1 mps 653 mmHg 58%
    15:00 +29°C° 0.6 mm 1 mps 652 mmHg 58%
    16:00 +28°C° 0.6 mm 1 mps 651 mmHg 59%
    17:00 +27°C° 0.5 mm 1 mps 652 mmHg 66%
    18:00 +25°C° 0.5 mm 1 mps 652 mmHg 72%
    19:00 +23°C° 0.5 mm 1 mps 652 mmHg 78%
    20:00 +23°C° 0.4 mm 1 mps 652 mmHg 81%
    21:00 +22°C° 0.4 mm 1 mps 652 mmHg 85%
    22:00 +21°C° 0.4 mm 1 mps 652 mmHg 88%
    23:00 +21°C° 0.1 mm 1 mps 652 mmHg 89%
    Show more